YAOGAN 2 DEB

Satellite information

Favourite Embed

Satellite Type and Status

DEBRISIN ORBIT

Key statistics

Satellite YAOGAN 2 DEB at a glance.

Uptime

6620

Days in orbit

Revolutions

≈ 14.4

Per day

Orbit

SSO

Sun Synchronous Orbit

Inclination

97.9

Latest

Satellite identification and parameters

Extended collection of information and parameters for YAOGAN 2 DEB.

Object identification

Identified? True

Debris? True

Object name: YAOGAN 2 DEB

International designator: 2007-019C

Object number (NORAD): 38263

Object ID (CCSDS): 38263

Country: PEOPLES REPUBLIC OF CHINA (PRC)

Current information (Y/N): Y

RCS size: SMALL

Orbital parameters

Period: 100.334 minutes

Inclination: 97.9356 deg

SMA: 7152.498 km

Apoapsis: 917.688 km

Periapsis: 631.039 km

RAAN: 96.5453 deg

Eccentricy: 0.0200384

Argument of periapsis: 343.085 deg

Mean anomaly: 16.372 deg

Mean motion: 14.35212166 rev/day

Mean motion (dot): 0.00002091 rev/day2

B* drag term: 0.0005949 1/REarth

Two-line elements (TLE)

Creation date: July 7, 2025, 5:18 a.m.

Reference frame: TEME

Reference center: EARTH

Epoch: July 6, 2025, 5:06 p.m. UTC

TLE line 0: 0 YAOGAN 2 DEB

TLE line 1: 1 38263U 07019C 25187.71262246 .00002091 00000-0 59490-3 0 9994

TLE line 2: 2 38263 97.9356 96.5453 0200384 343.0850 16.3720 14.35212166938409

Live tracking on map

Real-time ground track for satellite YAOGAN 2 DEB.

In-orbit conjunctions

A list of the most updated potential collisions computed for object YAOGAN 2 DEB.

Target Orbit TCA Probability of collision Miss distance Type
SL-14 R/B LEO 2025-05-27 13:41:54 0.001788882 68.0 (m) ROCKET BODY

Associated space launch

Chinese Earth observation satellite likely also used for military reconnaissance

YAOGAN 2 DEB was lifted into orbit during the mission ‘Long March 2D | Yaogan Weixing 2’, on board a Long March 2D space rocket.

The launch took place on May 25, 2007, 7:12 a.m. from Launch Area 4 (SLS-2 / 603).

For more information about the launch, click the button.

Launch to space Long March 2D | Yaogan Weixing 2
Long March 2D | Yaogan Weixing 2

Agency: N/A

Status: Launch Successful

Launch date: May 25, 2007, 7:12 a.m. UTC

Rocket: Long March 2D

Launch pad: Launch Area 4 (SLS-2 / 603)

Location: Jiuquan Satellite Launch Center, People's Republic of China

...

Latest news about this satellite

There are no fresh news available about this satellite. Check back as we update our databases every day.


Newsletter sign-up

Weekly statistics, charts and insights to help you stay on top of the space industry.